Total_Precipitation_Accumulation
0.04 0.02 0.01 0.02 0.02 0.02 0.01 0.00 0.00 0.00 0.00 0.01 0.04 0.06 0.05 0.06 0.13 0.16 0.27 0.45 0.69 0.69 0.44 0.29 0.18 0.14 0.15 0.17 0.17 0.18 0.20 0.22 0.25 0.27 0.25 0.17 0.13 0.10 0.05 0.05 0.07 0.07 0.05
0.04 0.03 0.02 0.02 0.02 0.02 0.03 0.01 0.00 0.00 0.00 0.00 0.02 0.03 0.03 0.04 0.08 0.13 0.28 0.43 0.53 0.61 0.69 0.59 0.41 0.31 0.22 0.18 0.15 0.14 0.16 0.18 0.20 0.22 0.23 0.18 0.13 0.09 0.05 0.07 0.10 0.09 0.06
0.04 0.04 0.04 0.06 0.06 0.03 0.01 0.01 0.02 0.01 0.00 0.01 0.01 0.01 0.01 0.02 0.03 0.07 0.13 0.24 0.24 0.24 0.41 0.56 0.55 0.48 0.37 0.29 0.21 0.12 0.11 0.12 0.16 0.20 0.21 0.20 0.15 0.12 0.09 0.11 0.10 0.11 0.08
0.09 0.11 0.11 0.13 0.16 0.07 0.03 0.03 0.04 0.02 0.02 0.01 0.01 0.01 0.00 0.00 0.01 0.02 0.04 0.07 0.09 0.10 0.16 0.19 0.21 0.25 0.35 0.39 0.31 0.14 0.08 0.08 0.09 0.13 0.17 0.15 0.12 0.12 0.13 0.15 0.11 0.10 0.11
0.23 0.24 0.28 0.26 0.22 0.18 0.12 0.07 0.06 0.05 0.05 0.04 0.02 0.02 0.01 0.00 0.01 0.01 0.02 0.03 0.03 0.05 0.09 0.04 0.04 0.04 0.06 0.10 0.16 0.18 0.14 0.08 0.06 0.07 0.08 0.09 0.08 0.08 0.11 0.11 0.10 0.09 0.10
0.51 0.52 0.55 0.47 0.38 0.40 0.41 0.21 0.17 0.14 0.12 0.08 0.05 0.03 0.02 0.01 0.01 0.01 0.02 0.02 0.01 0.01 0.02 0.01 0.01 0.01 0.01 0.03 0.05 0.09 0.12 0.10 0.06 0.05 0.05 0.06 0.06 0.06 0.07 0.08 0.08 0.08 0.10
0.87 0.94 0.91 0.82 0.73 0.71 0.63 0.48 0.47 0.38 0.25 0.13 0.16 0.16 0.08 0.04 0.03 0.02 0.01 0.02 0.02 0.02 0.01 0.00 0.00 0.01 0.01 0.01 0.02 0.04 0.06 0.08 0.10 0.09 0.05 0.04 0.04 0.04 0.06 0.08 0.09 0.09 0.12
1.22 1.21 1.30 1.29 1.17 1.17 1.09 0.90 0.91 0.84 0.58 0.36 0.43 0.51 0.32 0.17 0.07 0.04 0.02 0.02 0.02 0.02 0.02 0.01 0.00 0.00 0.01 0.02 0.02 0.01 0.02 0.06 0.12 0.12 0.08 0.05 0.03 0.03 0.04 0.06 0.09 0.10 0.10
1.43 1.37 1.42 1.46 1.38 1.35 1.36 1.34 1.24 1.19 0.98 0.66 0.51 0.58 0.53 0.43 0.24 0.08 0.04 0.03 0.03 0.03 0.03 0.03 0.01 0.01 0.00 0.02 0.02 0.01 0.00 0.02 0.06 0.09 0.08 0.06 0.04 0.03 0.02 0.04 0.08 0.11 0.11
1.59 1.57 1.52 1.57 1.51 1.41 1.44 1.46 1.33 1.33 1.29 1.01 0.77 0.59 0.48 0.44 0.34 0.21 0.09 0.06 0.07 0.05 0.04 0.04 0.02 0.01 0.01 0.00 0.01 0.00 0.00 0.01 0.02 0.04 0.07 0.06 0.05 0.05 0.04 0.04 0.06 0.09 0.13
1.71 1.65 1.60 1.66 1.63 1.54 1.46 1.56 1.52 1.52 1.41 1.31 1.13 0.96 0.82 0.67 0.41 0.35 0.29 0.15 0.08 0.06 0.06 0.05 0.04 0.02 0.01 0.01 0.00 0.00 0.00 0.00 0.01 0.02 0.04 0.06 0.07 0.07 0.08 0.08 0.08 0.11 0.13
1.71 1.58 1.44 1.48 1.46 1.43 1.41 1.51 1.57 1.62 1.54 1.52 1.34 1.06 0.94 0.81 0.64 0.57 0.46 0.32 0.19 0.08 0.06 0.05 0.05 0.04 0.02 0.01 0.01 0.01 0.01 0.00 0.01 0.02 0.02 0.03 0.04 0.04 0.07 0.11 0.12 0.13 0.13
1.55 1.55 1.41 1.37 1.30 1.22 1.20 1.26 1.31 1.32 1.39 1.47 1.30 1.07 0.99 0.84 0.76 0.72 0.61 0.48 0.37 0.17 0.07 0.05 0.06 0.05 0.04 0.02 0.02 0.03 0.01 0.01 0.01 0.01 0.01 0.02 0.02 0.01 0.02 0.05 0.11 0.18 0.20
1.24 1.29 1.26 1.17 1.17 1.20 1.19 1.18 1.17 1.14 1.07 1.09 1.10 1.08 1.06 0.91 0.81 0.73 0.71 0.73 0.62 0.47 0.27 0.12 0.10 0.07 0.08 0.06 0.05 0.03 0.02 0.01 0.00 0.01 0.01 0.01 0.01 0.01 0.00 0.01 0.05 0.09 0.11
0.77 0.84 0.94 0.96 0.97 1.04 1.08 1.14 1.16 1.08 0.95 0.92 0.98 1.01 0.94 0.89 0.84 0.74 0.69 0.67 0.70 0.64 0.56 0.39 0.21 0.11 0.11 0.09 0.07 0.04 0.02 0.02 0.02 0.01 0.01 0.01 0.00 0.00 0.00 0.00 0.00 0.01 0.01
0.46 0.51 0.59 0.65 0.70 0.82 0.91 0.97 1.00 1.02 0.97 0.91 0.95 1.00 1.00 0.99 0.98 0.89 0.77 0.72 0.65 0.65 0.61 0.50 0.33 0.18 0.20 0.18 0.14 0.08 0.04 0.03 0.03 0.03 0.02 0.01 0.01 0.00 0.00 0.00 0.00 0.00 0.00
0.34 0.37 0.44 0.48 0.49 0.54 0.67 0.84 0.91 0.89 0.87 0.84 0.83 0.90 1.01 1.05 1.10 1.05 1.00 0.88 0.76 0.73 0.70 0.62 0.45 0.25 0.23 0.24 0.22 0.14 0.07 0.05 0.04 0.03 0.03 0.02 0.01 0.01 0.00 0.00 0.00 0.00 0.00
0.26 0.30 0.37 0.42 0.46 0.47 0.49 0.58 0.68 0.70 0.69 0.71 0.71 0.73 0.83 0.92 1.01 1.09 1.09 1.04 1.00 0.88 0.85 0.81 0.67 0.45 0.30 0.27 0.22 0.18 0.14 0.10 0.07 0.08 0.09 0.07 0.03 0.02 0.01 0.01 0.00 0.00 0.00
0.29 0.31 0.36 0.40 0.44 0.44 0.43 0.42 0.47 0.53 0.54 0.53 0.54 0.55 0.58 0.67 0.79 0.93 1.01 1.03 1.06 1.06 1.01 0.92 0.81 0.67 0.45 0.33 0.27 0.22 0.18 0.16 0.13 0.12 0.14 0.13 0.11 0.07 0.07 0.06 0.04 0.02 0.01
0.35 0.37 0.46 0.48 0.46 0.41 0.42 0.42 0.44 0.44 0.41 0.39 0.38 0.36 0.37 0.41 0.49 0.63 0.78 0.92 1.04 1.09 1.12 1.08 0.92 0.72 0.60 0.50 0.34 0.27 0.27 0.25 0.22 0.20 0.17 0.17 0.18 0.16 0.13 0.10 0.09 0.07 0.05
0.40 0.42 0.47 0.50 0.53 0.50 0.48 0.47 0.43 0.39 0.36 0.35 0.31 0.23 0.21 0.25 0.29 0.34 0.41 0.60 0.81 0.95 1.00 1.04 0.96 0.79 0.64 0.55 0.44 0.37 0.36 0.36 0.31 0.29 0.28 0.24 0.22 0.19 0.19 0.19 0.17 0.14 0.11
0.34 0.36 0.40 0.48 0.52 0.47 0.57 0.52 0.40 0.31 0.31 0.30 0.25 0.21 0.21 0.24 0.22 0.19 0.20 0.29 0.46 0.63 0.78 0.90 0.94 0.84 0.71 0.62 0.56 0.49 0.39 0.33 0.29 0.26 0.25 0.28 0.28 0.26 0.28 0.27 0.28 0.27 0.22
0.34 0.35 0.35 0.39 0.44 0.56 0.50 0.34 0.31 0.28 0.30 0.30 0.29 0.28 0.26 0.24 0.27 0.21 0.20 0.20 0.24 0.27 0.39 0.59 0.75 0.81 0.88 0.76 0.59 0.47 0.39 0.34 0.35 0.35 0.30 0.27 0.27 0.27 0.30 0.30 0.33 0.34 0.33
0.37 0.37 0.38 0.36 0.40 0.49 0.40 0.26 0.26 0.25 0.33 0.38 0.36 0.36 0.37 0.32 0.30 0.30 0.30 0.34 0.33 0.29 0.35 0.28 0.38 0.66 0.73 0.71 0.63 0.55 0.49 0.43 0.37 0.32 0.30 0.29 0.31 0.30 0.27 0.26 0.29 0.29 0.28
0.43 0.42 0.42 0.40 0.43 0.44 0.35 0.25 0.26 0.33 0.44 0.45 0.39 0.42 0.41 0.35 0.41 0.37 0.40 0.52 0.51 0.45 0.56 0.54 0.49 0.51 0.51 0.48 0.48 0.51 0.50 0.44 0.39 0.32 0.26 0.22 0.23 0.26 0.27 0.29 0.28 0.28 0.27
0.41 0.41 0.38 0.34 0.36 0.36 0.38 0.25 0.31 0.41 0.47 0.49 0.47 0.49 0.57 0.48 0.48 0.37 0.32 0.45 0.52 0.48 0.42 0.45 0.41 0.33 0.25 0.26 0.31 0.33 0.46 0.51 0.49 0.40 0.32 0.24 0.23 0.23 0.24 0.24 0.21 0.21 0.20